| time (UTC) | temp C | wind direction | speed KPH | gust KPH | rain 1hr cm | rain 24hr cm | rain mn cm | humidity % | barometer mb |
| 20260507114549 | 5 | 327 | 0.0 | 0.0 | 0.00 | 0.53 | 0.00 | 83 | 1012.7 |
| 20260507113043 | 5 | 327 | 0.0 | 0.0 | 0.00 | 0.76 | 0.00 | 84 | 1012.6 |
| 20260507111546 | 4 | 329 | 0.0 | 1.6 | 0.00 | 0.76 | 0.00 | 84 | 1012.7 |
| 20260507110041 | 3 | 5 | 0.0 | 0.0 | 0.00 | 0.76 | 0.00 | 85 | 1012.6 |
| 20260507104540 | 3 | 11 | 0.0 | 1.6 | 0.00 | 0.76 | 0.00 | 86 | 1012.4 |
| 20260507103036 | 3 | 11 | 0.0 | 0.0 | 0.00 | 0.84 | 0.00 | 87 | 1012.2 |
| 20260507101544 | 2 | 11 | 0.0 | 0.0 | 0.00 | 0.84 | 0.00 | 86 | 1012.0 |
| 20260507100037 | 2 | 11 | 0.0 | 3.2 | 0.00 | 0.84 | 0.00 | 85 | 1012.0 |
| 20260507094536 | 2 | 11 | 0.0 | 0.0 | 0.00 | 0.84 | 0.00 | 84 | 1011.9 |
| 20260507093039 | 3 | 11 | 0.0 | 4.8 | 0.00 | 0.94 | 0.00 | 82 | 1011.8 |
| 20260507091535 | 3 | 11 | 1.6 | 6.4 | 0.00 | 0.94 | 0.00 | 82 | 1011.9 |
| 20260507090034 | 3 | 9 | 3.2 | 8.0 | 0.00 | 0.94 | 0.00 | 82 | 1011.9 |
| 20260507084532 | 3 | 9 | 3.2 | 8.0 | 0.00 | 0.94 | 0.00 | 81 | 1012.0 |
| 20260507083037 | 3 | 15 | 3.2 | 6.4 | 0.00 | 0.99 | 0.00 | 81 | 1012.1 |
| 20260507081530 | 3 | 15 | 1.6 | 6.4 | 0.00 | 0.99 | 0.00 | 81 | 1012.0 |
| 20260507080030 | 3 | 15 | 1.6 | 6.4 | 0.00 | 0.99 | 0.00 | 81 | 1012.0 |
| 20260507074530 | 3 | 21 | 3.2 | 8.0 | 0.00 | 0.99 | 0.00 | 81 | 1012.0 |
| 20260507073026 | 3 | 15 | 1.6 | 6.4 | 0.00 | 1.02 | 0.00 | 81 | 1011.9 |
| 20260507071531 | 4 | 15 | 0.0 | 3.2 | 0.00 | 1.02 | 0.00 | 81 | 1011.8 |
| 20260507070022 | 4 | 15 | 0.0 | 3.2 | 0.00 | 1.02 | 0.00 | 81 | 1011.7 |
| 20260507064519 | 5 | 42 | 1.6 | 6.4 | 0.00 | 1.02 | 0.00 | 79 | 1011.8 |
| 20260507063018 | 5 | 18 | 3.2 | 8.0 | 0.00 | 1.02 | 1.02 | 79 | 1011.8 |
| 20260507061518 | 5 | 32 | 3.2 | 6.4 | 0.00 | 1.02 | 1.02 | 79 | 1011.8 |
| 20260507060018 | 5 | 360 | 1.6 | 9.7 | 0.00 | 1.02 | 1.02 | 82 | 1011.8 |
| 20260507054515 | 5 | 15 | 1.6 | 8.0 | 0.00 | 1.02 | 1.02 | 84 | 1012.1 |
| 20260507053015 | 5 | 321 | 0.0 | 8.0 | 0.00 | 1.02 | 1.02 | 87 | 1012.0 |
| 20260507051505 | 5 | 17 | 0.0 | 4.8 | 0.00 | 1.02 | 1.02 | 86 | 1011.5 |
| 20260507050005 | 5 | 346 | 1.6 | 4.8 | 0.00 | 1.02 | 1.02 | 84 | 1011.7 |
| 20260507044502 | 5 | 321 | 3.2 | 9.7 | 0.00 | 1.02 | 1.02 | 83 | 1011.8 |
| 20260507043100 | 6 | 293 | 0.0 | 9.7 | 0.00 | 1.02 | 1.02 | 82 | 1011.9 |
| 20260507041501 | 6 | 289 | 3.2 | 12.9 | 0.00 | 1.02 | 1.02 | 82 | 1011.8 |
| 20260507040112 | 6 | 297 | 3.2 | 8.0 | 0.00 | 1.02 | 1.02 | 83 | 1011.4 |
| 20260507034605 | 6 | 290 | 1.6 | 9.7 | 0.00 | 1.02 | 1.02 | 83 | 1011.2 |
| 20260507033058 | 6 | 301 | 3.2 | 11.3 | 0.00 | 1.02 | 1.02 | 85 | 1011.2 |
| 20260507031557 | 6 | 300 | 1.6 | 12.9 | 0.00 | 1.02 | 1.02 | 87 | 1011.1 |
| 20260507030056 | 6 | 304 | 3.2 | 11.3 | 0.00 | 1.02 | 1.02 | 89 | 1011.1 |
| 20260507024552 | 6 | 315 | 1.6 | 9.7 | 0.00 | 1.02 | 1.02 | 91 | 1010.8 |
| 20260507023051 | 6 | 311 | 1.6 | 9.7 | 0.00 | 1.02 | 1.02 | 93 | 1010.8 |
| 20260507021554 | 6 | 315 | 0.0 | 6.4 | 0.00 | 1.02 | 1.02 | 94 | 1011.3 |
| 20260507014605 | 6 | 317 | 0.0 | 4.8 | 0.00 | 1.02 | 1.02 | 95 | 1011.2 |
| 20260507013053 | 6 | 317 | 0.0 | 1.6 | 0.00 | 1.02 | 1.02 | 95 | 1010.9 |
| 20260507011602 | 6 | 317 | 0.0 | 1.6 | 0.00 | 1.02 | 1.02 | 95 | 1011.0 |
| 20260507010055 | 6 | 317 | 0.0 | 1.6 | 0.00 | 1.02 | 1.02 | 95 | 1011.0 |
| 20260507004551 | 6 | 317 | 0.0 | 3.2 | 0.00 | 1.02 | 1.02 | 95 | 1010.7 |
| 20260507003049 | 7 | 317 | 0.0 | 3.2 | 0.00 | 1.02 | 1.02 | 95 | 1010.7 |
| 20260507001606 | 7 | 317 | 0.0 | 0.0 | 0.00 | 1.02 | 1.02 | 95 | 1010.3 |
| 20260507000056 | 7 | 317 | 0.0 | 1.6 | 0.00 | 1.02 | 1.02 | 95 | 1010.0 |
| 20260506234548 | 7 | 317 | 0.0 | 4.8 | 0.00 | 1.02 | 1.02 | 95 | 1009.9 |
| 20260506233045 | 7 | 294 | 0.0 | 8.0 | 0.00 | 1.02 | 1.02 | 95 | 1009.8 |
| 20260506231539 | 7 | 50 | 0.0 | 3.2 | 0.00 | 1.02 | 1.02 | 95 | 1009.6 |
| 20260506230037 | 7 | 51 | 0.0 | 1.6 | 0.00 | 1.02 | 1.02 | 95 | 1009.3 |
| 20260506224537 | 7 | 38 | 0.0 | 1.6 | 0.00 | 1.02 | 1.02 | 95 | 1009.1 |
| 20260506223035 | 7 | 38 | 0.0 | 4.8 | 0.00 | 1.02 | 1.02 | 95 | 1009.2 |
| 20260506221535 | 7 | 27 | 0.0 | 6.4 | 0.00 | 1.02 | 1.02 | 95 | 1009.1 |
| 20260506220034 | 7 | 49 | 0.0 | 8.0 | 0.00 | 1.02 | 1.02 | 95 | 1009.0 |
| 20260506214532 | 7 | 360 | 3.2 | 9.7 | 0.00 | 1.02 | 1.02 | 95 | 1008.6 |
| 20260506213030 | 7 | 24 | 1.6 | 6.4 | 0.00 | 1.02 | 1.02 | 95 | 1008.3 |
| 20260506211526 | 7 | 19 | 1.6 | 9.7 | 0.00 | 1.02 | 1.02 | 95 | 1008.1 |
| 20260506210024 | 7 | 49 | 1.6 | 9.7 | 0.00 | 1.02 | 1.02 | 96 | 1008.1 |
| 20260506204523 | 7 | 5 | 3.2 | 8.0 | 0.00 | 1.02 | 1.02 | 96 | 1007.9 |
| 20260506203030 | 7 | 350 | 1.6 | 11.3 | 0.00 | 1.07 | 1.02 | 95 | 1007.8 |
| 20260506201525 | 7 | 44 | 4.8 | 11.3 | 0.00 | 1.07 | 1.02 | 95 | 1007.4 |
| 20260506200025 | 7 | 5 | 3.2 | 11.3 | 0.00 | 1.07 | 1.02 | 96 | 1007.1 |
| 20260506194522 | 8 | 37 | 1.6 | 4.8 | 0.00 | 1.07 | 1.02 | 96 | 1007.1 |
| 20260506193019 | 7 | 46 | 1.6 | 11.3 | 0.00 | 1.07 | 1.02 | 96 | 1006.8 |
| 20260506191519 | 7 | 355 | 6.4 | 12.9 | 0.00 | 1.07 | 1.02 | 95 | 1006.6 |
| 20260506190025 | 8 | 40 | 4.8 | 12.9 | 0.03 | 1.07 | 1.02 | 96 | 1006.5 |
| 20260506184516 | 8 | 15 | 6.4 | 14.5 | 0.03 | 1.07 | 1.02 | 96 | 1006.4 |
| 20260506183014 | 8 | 29 | 6.4 | 16.1 | 0.10 | 1.07 | 1.02 | 96 | 1006.4 |
| 20260506181511 | 8 | 11 | 4.8 | 12.9 | 0.13 | 1.07 | 1.02 | 95 | 1006.1 |
| 20260506180009 | 8 | 5 | 3.2 | 9.7 | 0.10 | 1.04 | 0.99 | 95 | 1005.9 |
| 20260506174509 | 8 | 42 | 4.8 | 9.7 | 0.10 | 1.04 | 0.99 | 95 | 1005.6 |
| 20260506173002 | 9 | 10 | 4.8 | 12.9 | 0.05 | 0.99 | 0.94 | 95 | 1005.3 |
| 20260506171604 | 11 | 15 | 9.7 | 14.5 | 0.00 | 0.94 | 0.89 | 91 | 1005.0 |
| 20260506170054 | 12 | 247 | 0.0 | 9.7 | 0.00 | 0.94 | 0.89 | 96 | 1004.8 |
| 20260506164558 | 12 | 226 | 1.6 | 8.0 | 0.00 | 0.94 | 0.89 | 95 | 1004.9 |
| 20260506163116 | 12 | 258 | 3.2 | 11.3 | 0.00 | 0.94 | 0.89 | 96 | 1004.8 |
| 20260506161556 | 12 | 274 | 1.6 | 9.7 | 0.00 | 0.94 | 0.89 | 96 | 1004.8 |
| 20260506160056 | 12 | 241 | 1.6 | 12.9 | 0.00 | 0.94 | 0.89 | 96 | 1004.8 |
| 20260506154555 | 12 | 213 | 1.6 | 17.7 | 0.00 | 0.94 | 0.89 | 96 | 1004.7 |
| 20260506153109 | 12 | 232 | 6.4 | 19.3 | 0.00 | 0.94 | 0.89 | 96 | 1004.4 |
| 20260506151552 | 12 | 167 | 3.2 | 11.3 | 0.00 | 0.94 | 0.89 | 96 | 1004.6 |
| 20260506150051 | 11 | 229 | 1.6 | 17.7 | 0.00 | 0.94 | 0.89 | 95 | 1004.7 |
| 20260506144550 | 11 | 249 | 3.2 | 19.3 | 0.03 | 0.94 | 0.89 | 96 | 1004.7 |
| 20260506143050 | 11 | 240 | 1.6 | 16.1 | 0.05 | 0.94 | 0.89 | 96 | 1004.7 |
| 20260506141553 | 11 | 230 | 6.4 | 17.7 | 0.08 | 0.94 | 0.89 | 96 | 1004.4 |
| 20260506140051 | 11 | 200 | 8.0 | 16.1 | 0.10 | 0.94 | 0.89 | 95 | 1004.2 |
| 20260506134548 | 11 | 231 | 0.0 | 14.5 | 0.10 | 0.91 | 0.86 | 95 | 1004.3 |
| 20260506133050 | 11 | 166 | 1.6 | 12.9 | 0.13 | 0.89 | 0.84 | 95 | 1004.4 |
| 20260506131601 | 11 | 225 | 1.6 | 12.9 | 0.20 | 0.86 | 0.81 | 95 | 1004.6 |
| 20260506130053 | 11 | 225 | 4.8 | 20.9 | 0.28 | 0.84 | 0.79 | 95 | 1004.7 |
| 20260506124549 | 11 | 207 | 1.6 | 22.5 | 0.28 | 0.81 | 0.76 | 95 | 1004.6 |
| 20260506123049 | 11 | 209 | 0.0 | 8.0 | 0.30 | 0.76 | 0.71 | 95 | 1005.0 |
| 20260506121553 | 11 | 275 | 0.0 | 6.4 | 0.28 | 0.69 | 0.64 | 95 | 1005.5 |
| 20260506120043 | 11 | 225 | 1.6 | 11.3 | 0.23 | 0.58 | 0.53 | 95 | 1005.3 |